Location: Albany
(35.0000°S, 118.0000°E)
Time: 07:13:19
(UTC-04:00)

Tiangong - Pass Details

Date: 28 September 2021
Orbit: 382 x 385 km, 41.5° (Epoch: 16 October)

Event Time Altitude Azimuth Distance (km) Brightness Sun altitude
Rises 08:09:56 0° 243° (WSW) 2,290 6.4 -24.9°
Reaches altitude 10° 08:12:04 10° 236° (WSW) 1,432 4.9 -25.3°
Enters shadow 08:13:37 24° 223° (SW) 870 3.4 -25.6°
